Regional Weather Roundup
Issued by NWS

Home | Current Version | Previous Version | Graphics & Text | Print | Product List | Glossary On
Versions: 1 2 3 4 5 6 7 8 9 10 11 12 13 14 15 16 17 18 19 20 21 22 23 24 25 26 27 28 29 30 31 32 33 34 35 36 37 38 39 40 41 42 43 44 45 46 47 48 49 50
000
ASUS43 KBIS 302110
RWRND

NORTH DAKOTA REGIONAL WEATHER ROUNDUP
NATIONAL WEATHER SERVICE BISMARCK ND
400 PM CDT SUN AUG 30 2015

NOTE: "FAIR" INDICATES FEW OR NO CLOUDS BELOW 12,000 FEET WITH NO
SIGNIFICANT WEATHER AND/OR OBSTRUCTIONS TO VISIBILITY.


NDZ001>003-009>011-017-302200-
NORTHWEST NORTH DAKOTA

CITY           SKY/WX    TMP DP  RH WIND       PRES   REMARKS
WILLISTON      CLOUDY    86  47  25 NW21G29   29.71S
MINOT          CLOUDY    90  52  27 SW13      29.63R
MINOT AFB      CLOUDY    91  55  29 W10       29.63R
$$

NDZ018>021-031>035-040>046-302200-
SOUTHWEST NORTH DAKOTA

CITY           SKY/WX    TMP DP  RH WIND       PRES   REMARKS
BISMARCK       PTSUNNY   95  61  32 S12       29.66R HX  95
GARRISON         N/A     91  55  29 W8        29.66F
HETTINGER ARPT MOSUNNY   98  45  16 N12       29.73S HX  94
$$

NDZ004>008-012>016-024-026-027-054-302200-
NORTHEAST NORTH DAKOTA

CITY           SKY/WX    TMP DP  RH WIND       PRES   REMARKS
GRAND FORKS    PTSUNNY   88  68  51 S17G25    29.67F HX  91
GRND FRKS AFB  SUNNY     87  69  55 S17       29.68F HX  91
DEVILS LAKE    PTSUNNY   90  66  45 S20       29.64F HX  92
$$

NDZ022-023-025-028>030-036>039-047>053-302200-
SOUTHEAST NORTH DAKOTA

CITY           SKY/WX    TMP DP  RH WIND       PRES   REMARKS
FARGO          SUNNY     88  66  48 SE21G30   29.74F HX  90
JAMESTOWN      PTSUNNY   87  66  49 S17       29.70F
$$



USA.gov is the U.S. government's official web portal to all federal, state and local government web resources and services.